Year,Month,Day,Hour,Minute,Value (Times are PST for temperature in C)
2014,12,14,00,00,5.20
2014,12,14,00,01,5.20
2014,12,14,00,02,5.20
2014,12,14,00,03,5.30
2014,12,14,00,04,5.30
2014,12,14,00,05,5.30
2014,12,14,00,06,5.30
2014,12,14,00,07,5.30
2014,12,14,00,08,5.30
2014,12,14,00,09,5.30
2014,12,14,00,10,5.30
2014,12,14,00,11,5.30
2014,12,14,00,12,5.30
2014,12,14,00,13,5.30
2014,12,14,00,14,5.30
2014,12,14,00,15,5.30
2014,12,14,00,16,5.30
2014,12,14,00,17,5.30
2014,12,14,00,18,5.30
2014,12,14,00,19,5.30
2014,12,14,00,20,5.30
2014,12,14,00,21,5.30
2014,12,14,00,22,5.30
2014,12,14,00,23,5.30
2014,12,14,00,24,5.30
2014,12,14,00,25,5.30
2014,12,14,00,26,5.30
2014,12,14,00,27,5.40
2014,12,14,00,28,5.40
2014,12,14,00,29,5.40
2014,12,14,00,30,5.40
2014,12,14,00,31,5.40
2014,12,14,00,32,5.40
2014,12,14,00,33,5.40
2014,12,14,00,34,5.40
2014,12,14,00,35,5.40
2014,12,14,00,36,5.40
2014,12,14,00,37,5.40
2014,12,14,00,38,5.40
2014,12,14,00,39,5.40
2014,12,14,00,40,5.40
2014,12,14,00,41,5.40
2014,12,14,00,42,5.40
2014,12,14,00,43,5.40
2014,12,14,00,44,5.40
2014,12,14,00,45,5.40
2014,12,14,00,46,5.40
2014,12,14,00,47,5.40
2014,12,14,00,48,5.40
2014,12,14,00,49,5.40
2014,12,14,00,50,5.40
2014,12,14,00,51,5.40
2014,12,14,00,52,5.40
2014,12,14,00,53,5.40
2014,12,14,00,54,5.40
2014,12,14,00,55,5.40
2014,12,14,00,56,5.40
2014,12,14,00,57,5.40
2014,12,14,00,58,5.50
2014,12,14,00,59,5.50
2014,12,14,01,00,5.50
2014,12,14,01,01,5.50
2014,12,14,01,02,5.50
2014,12,14,01,03,5.40
2014,12,14,01,04,5.40
2014,12,14,01,05,5.50
2014,12,14,01,06,5.50
2014,12,14,01,07,5.50
2014,12,14,01,08,5.50
2014,12,14,01,09,5.50
2014,12,14,01,10,5.50
2014,12,14,01,11,5.50
2014,12,14,01,12,5.50
2014,12,14,01,13,5.50
2014,12,14,01,14,5.50
2014,12,14,01,15,5.50
2014,12,14,01,16,5.50
2014,12,14,01,17,5.50
2014,12,14,01,18,5.50
2014,12,14,01,19,5.50
2014,12,14,01,20,5.50
2014,12,14,01,21,5.50
2014,12,14,01,22,5.50
2014,12,14,01,23,5.60
2014,12,14,01,24,5.60
2014,12,14,01,25,5.60
2014,12,14,01,26,5.60
2014,12,14,01,27,5.70
2014,12,14,01,28,5.70
2014,12,14,01,29,5.70
2014,12,14,01,30,5.70
2014,12,14,01,31,5.70
2014,12,14,01,32,5.70
2014,12,14,01,33,5.70
2014,12,14,01,34,5.70
2014,12,14,01,35,5.70
2014,12,14,01,36,5.70
2014,12,14,01,37,5.70
2014,12,14,01,38,5.70
2014,12,14,01,39,5.70
2014,12,14,01,40,5.70
2014,12,14,01,41,5.80
2014,12,14,01,42,5.80
2014,12,14,01,43,5.80
2014,12,14,01,44,5.80
2014,12,14,01,45,5.80
2014,12,14,01,46,5.80
2014,12,14,01,47,5.80
2014,12,14,01,48,5.80
2014,12,14,01,49,5.80
2014,12,14,01,50,5.80
2014,12,14,01,51,5.80
2014,12,14,01,52,5.80
2014,12,14,01,53,5.80
2014,12,14,01,54,5.80
2014,12,14,01,55,5.80
2014,12,14,01,56,5.80
2014,12,14,01,57,5.80
2014,12,14,01,58,5.80
2014,12,14,01,59,5.80
2014,12,14,02,00,5.90
2014,12,14,02,01,5.90
2014,12,14,02,02,5.90
2014,12,14,02,03,5.90
2014,12,14,02,04,5.90
2014,12,14,02,05,5.90
2014,12,14,02,06,5.90
2014,12,14,02,07,5.90
2014,12,14,02,08,5.90
2014,12,14,02,09,5.90
2014,12,14,02,10,5.90
2014,12,14,02,11,5.90
2014,12,14,02,12,5.90
2014,12,14,02,13,5.90
2014,12,14,02,14,5.90
2014,12,14,02,15,5.90
2014,12,14,02,16,5.90
2014,12,14,02,17,5.90
2014,12,14,02,18,5.90
2014,12,14,02,19,5.90
2014,12,14,02,20,5.90
2014,12,14,02,21,5.90
2014,12,14,02,22,5.90
2014,12,14,02,23,5.90
2014,12,14,02,24,5.90
2014,12,14,02,25,5.90
2014,12,14,02,26,5.90
2014,12,14,02,27,5.90
2014,12,14,02,28,5.90
2014,12,14,02,29,5.90
2014,12,14,02,30,5.90
2014,12,14,02,31,5.90
2014,12,14,02,32,5.90
2014,12,14,02,33,5.90
2014,12,14,02,34,5.90
2014,12,14,02,35,5.90
2014,12,14,02,36,5.90
2014,12,14,02,37,5.90
2014,12,14,02,38,5.90
2014,12,14,02,39,5.90
2014,12,14,02,40,5.90
2014,12,14,02,41,5.90
2014,12,14,02,42,5.90
2014,12,14,02,43,5.90
2014,12,14,02,44,5.90
2014,12,14,02,45,5.90
2014,12,14,02,46,5.90
2014,12,14,02,47,5.90
2014,12,14,02,48,5.90
2014,12,14,02,49,5.90
2014,12,14,02,50,5.90
2014,12,14,02,51,5.90
2014,12,14,02,52,5.90
2014,12,14,02,53,5.90
2014,12,14,02,54,5.90
2014,12,14,02,55,5.90
2014,12,14,02,56,5.90
2014,12,14,02,57,5.90
2014,12,14,02,58,5.90
2014,12,14,02,59,5.90
2014,12,14,03,00,5.90
2014,12,14,03,01,5.90
2014,12,14,03,02,5.90
2014,12,14,03,03,5.90
2014,12,14,03,04,5.90
2014,12,14,03,05,5.90
2014,12,14,03,06,5.90
2014,12,14,03,07,5.90
2014,12,14,03,08,5.90
2014,12,14,03,09,5.90
2014,12,14,03,10,5.90
2014,12,14,03,11,5.90
2014,12,14,03,12,5.90
2014,12,14,03,13,5.90
2014,12,14,03,14,5.90
2014,12,14,03,15,5.90
2014,12,14,03,16,5.90
2014,12,14,03,17,5.90
2014,12,14,03,18,5.90
2014,12,14,03,19,5.90
2014,12,14,03,20,5.90
2014,12,14,03,21,5.90
2014,12,14,03,22,5.90
2014,12,14,03,23,5.90
2014,12,14,03,24,5.90
2014,12,14,03,25,5.90
2014,12,14,03,26,5.90
2014,12,14,03,27,5.90
2014,12,14,03,28,5.90
2014,12,14,03,29,5.90
2014,12,14,03,30,5.90
2014,12,14,03,31,5.90
2014,12,14,03,32,5.90
2014,12,14,03,33,5.90
2014,12,14,03,34,5.90
2014,12,14,03,35,5.90
2014,12,14,03,36,5.90
2014,12,14,03,37,5.90
2014,12,14,03,38,5.90
2014,12,14,03,39,5.80
2014,12,14,03,40,5.80
2014,12,14,03,41,5.80
2014,12,14,03,42,5.80
2014,12,14,03,43,5.80
2014,12,14,03,44,5.80
2014,12,14,03,45,5.80
2014,12,14,03,46,5.80
2014,12,14,03,47,5.80
2014,12,14,03,48,5.80
2014,12,14,03,49,5.80
2014,12,14,03,50,5.80
2014,12,14,03,51,5.80
2014,12,14,03,52,5.80
2014,12,14,03,53,5.80
2014,12,14,03,54,5.80
2014,12,14,03,55,5.80
2014,12,14,03,56,5.80
2014,12,14,03,57,5.80
2014,12,14,03,58,5.80
2014,12,14,03,59,5.70
2014,12,14,04,00,5.70
2014,12,14,04,01,5.70
2014,12,14,04,02,5.70
2014,12,14,04,03,5.70
2014,12,14,04,04,5.70
2014,12,14,04,05,5.70
2014,12,14,04,06,5.70
2014,12,14,04,07,5.70
2014,12,14,04,08,5.70
2014,12,14,04,09,5.70
2014,12,14,04,10,5.70
2014,12,14,04,11,5.70
2014,12,14,04,12,5.70
2014,12,14,04,13,5.70
2014,12,14,04,14,5.70
2014,12,14,04,15,5.70
2014,12,14,04,16,5.60
2014,12,14,04,17,5.60
2014,12,14,04,18,5.60
2014,12,14,04,19,5.60
2014,12,14,04,20,5.60
2014,12,14,04,21,5.60
2014,12,14,04,22,5.60
2014,12,14,04,23,5.60
2014,12,14,04,24,5.60
2014,12,14,04,25,5.60
2014,12,14,04,26,5.60
2014,12,14,04,27,5.60
2014,12,14,04,28,5.50
2014,12,14,04,29,5.50
2014,12,14,04,30,5.50
2014,12,14,04,31,5.50
2014,12,14,04,32,5.50
2014,12,14,04,33,5.50
2014,12,14,04,34,5.50
2014,12,14,04,35,5.40
2014,12,14,04,36,5.40
2014,12,14,04,37,5.40
2014,12,14,04,38,5.40
2014,12,14,04,39,5.40
2014,12,14,04,40,5.40
2014,12,14,04,41,5.40
2014,12,14,04,42,5.40
2014,12,14,04,43,5.40
2014,12,14,04,44,5.40
2014,12,14,04,45,5.30
2014,12,14,04,46,5.30
2014,12,14,04,47,5.30
2014,12,14,04,48,5.30
2014,12,14,04,49,5.30
2014,12,14,04,50,5.30
2014,12,14,04,51,5.20
2014,12,14,04,52,5.20
2014,12,14,04,53,5.20
2014,12,14,04,54,5.20
2014,12,14,04,55,5.20
2014,12,14,04,56,5.20
2014,12,14,04,57,5.20
2014,12,14,04,58,5.20
2014,12,14,04,59,5.20
2014,12,14,05,00,5.20
2014,12,14,05,01,5.20
2014,12,14,05,02,5.20
2014,12,14,05,03,5.20
2014,12,14,05,04,5.20
2014,12,14,05,05,5.20
2014,12,14,05,06,5.20
2014,12,14,05,07,5.20
2014,12,14,05,08,5.20
2014,12,14,05,09,5.20
2014,12,14,05,10,5.20
2014,12,14,05,11,5.20
2014,12,14,05,12,5.20
2014,12,14,05,13,5.20
2014,12,14,05,14,5.20
2014,12,14,05,15,5.20
2014,12,14,05,16,5.20
2014,12,14,05,17,5.20
2014,12,14,05,18,5.10
2014,12,14,05,19,5.10
2014,12,14,05,20,5.10
2014,12,14,05,21,5.10
2014,12,14,05,22,5.00
2014,12,14,05,23,5.00
2014,12,14,05,24,5.00
2014,12,14,05,25,4.90
2014,12,14,05,26,4.90
2014,12,14,05,27,4.90
2014,12,14,05,28,4.90
2014,12,14,05,29,4.90
2014,12,14,05,30,4.90
2014,12,14,05,31,4.80
2014,12,14,05,32,4.80
2014,12,14,05,33,4.80
2014,12,14,05,34,4.80
2014,12,14,05,35,4.80
2014,12,14,05,36,4.80
2014,12,14,05,37,4.80
2014,12,14,05,38,4.80
2014,12,14,05,39,4.80
2014,12,14,05,40,4.80
2014,12,14,05,41,4.80
2014,12,14,05,42,4.80
2014,12,14,05,43,4.80
2014,12,14,05,44,4.70
2014,12,14,05,45,4.70
2014,12,14,05,46,4.70
2014,12,14,05,47,4.70
2014,12,14,05,48,4.70
2014,12,14,05,49,4.70
2014,12,14,05,50,4.70
2014,12,14,05,51,4.60
2014,12,14,05,52,4.60
2014,12,14,05,53,4.60
2014,12,14,05,54,4.60
2014,12,14,05,55,4.70
2014,12,14,05,56,4.70
2014,12,14,05,57,4.70
2014,12,14,05,58,4.70
2014,12,14,05,59,4.70
2014,12,14,06,00,4.70
2014,12,14,06,01,4.70
2014,12,14,06,02,4.70
2014,12,14,06,03,4.70
2014,12,14,06,04,4.60
2014,12,14,06,05,4.60
2014,12,14,06,06,4.60
2014,12,14,06,07,4.60
2014,12,14,06,08,4.60
2014,12,14,06,09,4.50
2014,12,14,06,10,4.50
2014,12,14,06,11,4.50
2014,12,14,06,12,4.40
2014,12,14,06,13,4.40
2014,12,14,06,14,4.40
2014,12,14,06,15,4.40
2014,12,14,06,16,4.30
2014,12,14,06,17,4.30
2014,12,14,06,18,4.30
2014,12,14,06,19,4.30
2014,12,14,06,20,4.20
2014,12,14,06,21,4.20
2014,12,14,06,22,4.20
2014,12,14,06,23,4.20
2014,12,14,06,24,4.10
2014,12,14,06,25,4.10
2014,12,14,06,26,4.10
2014,12,14,06,27,4.10
2014,12,14,06,28,4.10
2014,12,14,06,29,4.10
2014,12,14,06,30,4.00
2014,12,14,06,31,4.00
2014,12,14,06,32,4.00
2014,12,14,06,33,3.90
2014,12,14,06,34,3.90
2014,12,14,06,35,3.90
2014,12,14,06,36,3.90
2014,12,14,06,37,3.90
2014,12,14,06,38,3.90
2014,12,14,06,39,3.90
2014,12,14,06,40,3.90
2014,12,14,06,41,3.80
2014,12,14,06,42,3.80
2014,12,14,06,43,3.80
2014,12,14,06,44,3.80
2014,12,14,06,45,3.80
2014,12,14,06,46,3.80
2014,12,14,06,47,3.80
2014,12,14,06,48,3.80
2014,12,14,06,49,3.80
2014,12,14,06,50,3.80
2014,12,14,06,51,3.80
2014,12,14,06,52,3.80
2014,12,14,06,53,3.70
2014,12,14,06,54,3.70
2014,12,14,06,55,3.70
2014,12,14,06,56,3.70
2014,12,14,06,57,3.70
2014,12,14,06,58,3.70
2014,12,14,06,59,3.70
2014,12,14,07,00,3.70
2014,12,14,07,01,3.70
2014,12,14,07,02,3.70
2014,12,14,07,03,3.70
2014,12,14,07,04,3.70
2014,12,14,07,05,3.70
2014,12,14,07,06,3.70
2014,12,14,07,07,3.70
2014,12,14,07,08,3.70
2014,12,14,07,09,3.70
2014,12,14,07,10,3.70
2014,12,14,07,11,3.70
2014,12,14,07,12,3.70
2014,12,14,07,13,3.70
2014,12,14,07,14,3.70
2014,12,14,07,15,3.70
2014,12,14,07,16,3.70
2014,12,14,07,17,3.70
2014,12,14,07,18,3.80
2014,12,14,07,19,3.80
2014,12,14,07,20,3.80
2014,12,14,07,21,3.90
2014,12,14,07,22,4.00
2014,12,14,07,23,4.00
2014,12,14,07,24,4.10
2014,12,14,07,25,4.00
2014,12,14,07,26,4.00
2014,12,14,07,27,4.10
2014,12,14,07,28,4.10
2014,12,14,07,29,4.10
2014,12,14,07,30,4.20
2014,12,14,07,31,4.20
2014,12,14,07,32,4.20
2014,12,14,07,33,4.30
2014,12,14,07,34,4.30
2014,12,14,07,35,4.30
2014,12,14,07,36,4.30
2014,12,14,07,37,4.30
2014,12,14,07,38,4.30
2014,12,14,07,39,4.30
2014,12,14,07,40,4.30
2014,12,14,07,41,4.30
2014,12,14,07,42,4.30
2014,12,14,07,43,4.30
2014,12,14,07,44,4.30
2014,12,14,07,45,4.30
2014,12,14,07,46,4.20
2014,12,14,07,47,4.20
2014,12,14,07,48,4.20
2014,12,14,07,49,4.20
2014,12,14,07,50,4.20
2014,12,14,07,51,4.20
2014,12,14,07,52,4.20
2014,12,14,07,53,4.10
2014,12,14,07,54,4.10
2014,12,14,07,55,4.00
2014,12,14,07,56,3.90
2014,12,14,07,57,3.90
2014,12,14,07,58,3.90
2014,12,14,07,59,3.90
2014,12,14,08,00,3.90
2014,12,14,08,01,3.80
2014,12,14,08,02,3.80
2014,12,14,08,03,3.80
2014,12,14,08,04,3.80
2014,12,14,08,05,3.80
2014,12,14,08,06,3.80
2014,12,14,08,07,3.80
2014,12,14,08,08,3.90
2014,12,14,08,09,3.90
2014,12,14,08,10,3.90
2014,12,14,08,11,3.90
2014,12,14,08,12,4.00
2014,12,14,08,13,4.00
2014,12,14,08,14,4.00
2014,12,14,08,15,4.00
2014,12,14,08,16,4.00
2014,12,14,08,17,4.00
2014,12,14,08,18,4.00
2014,12,14,08,19,4.10
2014,12,14,08,20,4.10
2014,12,14,08,21,4.10
2014,12,14,08,22,4.10
2014,12,14,08,23,4.10
2014,12,14,08,24,4.10
2014,12,14,08,25,4.20
2014,12,14,08,26,4.20
2014,12,14,08,27,4.20
2014,12,14,08,28,4.20
2014,12,14,08,29,4.20
2014,12,14,08,30,4.20
2014,12,14,08,31,4.20
2014,12,14,08,32,4.20
2014,12,14,08,33,4.20
2014,12,14,08,34,4.10
2014,12,14,08,35,4.00
2014,12,14,08,36,3.90
2014,12,14,08,37,3.90
2014,12,14,08,38,3.80
2014,12,14,08,39,3.70
2014,12,14,08,40,3.70
2014,12,14,08,41,3.60
2014,12,14,08,42,3.60
2014,12,14,08,43,3.50
2014,12,14,08,44,3.50
2014,12,14,08,45,3.50
2014,12,14,08,46,3.50
2014,12,14,08,47,3.50
2014,12,14,08,48,3.50
2014,12,14,08,49,3.60
2014,12,14,08,50,3.60
2014,12,14,08,51,3.60
2014,12,14,08,52,3.60
2014,12,14,08,53,3.60
2014,12,14,08,54,3.60
2014,12,14,08,55,3.60
2014,12,14,08,56,3.60
2014,12,14,08,57,3.60
2014,12,14,08,58,3.60
2014,12,14,08,59,3.60
2014,12,14,09,00,3.50
2014,12,14,09,01,3.50
2014,12,14,09,02,3.50
2014,12,14,09,03,3.50
2014,12,14,09,04,3.50
2014,12,14,09,05,3.50
2014,12,14,09,06,3.50
2014,12,14,09,07,3.40
2014,12,14,09,08,3.40
2014,12,14,09,09,3.40
2014,12,14,09,10,3.50
2014,12,14,09,11,3.50
2014,12,14,09,12,3.50
2014,12,14,09,13,3.50
2014,12,14,09,14,3.50
2014,12,14,09,15,3.50
2014,12,14,09,16,3.60
2014,12,14,09,17,3.60
2014,12,14,09,18,3.60
2014,12,14,09,19,3.60
2014,12,14,09,20,3.60
2014,12,14,09,21,3.60
2014,12,14,09,22,3.60
2014,12,14,09,23,3.70
2014,12,14,09,24,3.70
2014,12,14,09,25,3.70
2014,12,14,09,26,3.70
2014,12,14,09,27,3.70
2014,12,14,09,28,3.70
2014,12,14,09,29,3.70
2014,12,14,09,30,3.70
2014,12,14,09,31,3.70
2014,12,14,09,32,3.80
2014,12,14,09,33,3.80
2014,12,14,09,34,3.80
2014,12,14,09,35,3.80
2014,12,14,09,36,3.80
2014,12,14,09,37,3.80
2014,12,14,09,38,3.80
2014,12,14,09,39,3.80
2014,12,14,09,40,3.80
2014,12,14,09,41,3.80
2014,12,14,09,42,3.80
2014,12,14,09,43,3.80
2014,12,14,09,44,3.80
2014,12,14,09,45,3.80
2014,12,14,09,46,3.80
2014,12,14,09,47,3.80
2014,12,14,09,48,3.80
2014,12,14,09,49,3.80
2014,12,14,09,50,3.90
2014,12,14,09,51,3.90
2014,12,14,09,52,3.90
2014,12,14,09,53,3.90
2014,12,14,09,54,3.90
2014,12,14,09,55,3.90
2014,12,14,09,56,3.90
2014,12,14,09,57,3.90
2014,12,14,09,58,3.90
2014,12,14,09,59,3.90
2014,12,14,10,00,4.00
2014,12,14,10,01,4.00
2014,12,14,10,02,4.00
2014,12,14,10,03,4.00
2014,12,14,10,04,4.00
2014,12,14,10,05,4.10
2014,12,14,10,06,4.10
2014,12,14,10,07,4.10
2014,12,14,10,08,4.10
2014,12,14,10,09,4.10
2014,12,14,10,10,4.10
2014,12,14,10,11,4.20
2014,12,14,10,12,4.20
2014,12,14,10,13,4.20
2014,12,14,10,14,4.20
2014,12,14,10,15,4.20
2014,12,14,10,16,4.20
2014,12,14,10,17,4.30
2014,12,14,10,18,4.30
2014,12,14,10,19,4.30
2014,12,14,10,20,4.30
2014,12,14,10,21,4.30
2014,12,14,10,22,4.30
2014,12,14,10,23,4.30
2014,12,14,10,24,4.40
2014,12,14,10,25,4.40
2014,12,14,10,26,4.40
2014,12,14,10,27,4.40
2014,12,14,10,28,4.40
2014,12,14,10,29,4.40
2014,12,14,10,30,4.40
2014,12,14,10,31,4.40
2014,12,14,10,32,4.40
2014,12,14,10,33,4.40
2014,12,14,10,34,4.50
2014,12,14,10,35,4.50
2014,12,14,10,36,4.50
2014,12,14,10,37,4.50
2014,12,14,10,38,4.50
2014,12,14,10,39,4.50
2014,12,14,10,40,4.50
2014,12,14,10,41,4.60
2014,12,14,10,42,4.60
2014,12,14,10,43,4.60
2014,12,14,10,44,4.60
2014,12,14,10,45,4.60
2014,12,14,10,46,4.60
2014,12,14,10,47,4.60
2014,12,14,10,48,4.60
2014,12,14,10,49,4.60
2014,12,14,10,50,4.70
2014,12,14,10,51,4.70
2014,12,14,10,52,4.70
2014,12,14,10,53,4.70
2014,12,14,10,54,4.70
2014,12,14,10,55,4.70
2014,12,14,10,56,4.70
2014,12,14,10,57,4.70
2014,12,14,10,58,4.70
2014,12,14,10,59,4.70
2014,12,14,11,00,4.70
2014,12,14,11,01,4.80
2014,12,14,11,02,4.80
2014,12,14,11,03,4.80
2014,12,14,11,04,4.80
2014,12,14,11,05,4.80
2014,12,14,11,06,4.80
2014,12,14,11,07,4.80
2014,12,14,11,08,4.80
2014,12,14,11,09,4.80
2014,12,14,11,10,4.80
2014,12,14,11,11,4.80
2014,12,14,11,12,4.80
2014,12,14,11,13,4.80
2014,12,14,11,14,4.80
2014,12,14,11,15,4.80
2014,12,14,11,16,4.90
2014,12,14,11,17,4.90
2014,12,14,11,18,4.90
2014,12,14,11,19,4.90
2014,12,14,11,20,4.90
2014,12,14,11,21,4.90
2014,12,14,11,22,5.00
2014,12,14,11,23,5.00
2014,12,14,11,24,5.00
2014,12,14,11,25,5.00
2014,12,14,11,26,5.00
2014,12,14,11,27,5.00
2014,12,14,11,28,5.10
2014,12,14,11,29,5.10
2014,12,14,11,30,5.10
2014,12,14,11,31,5.10
2014,12,14,11,32,5.10
2014,12,14,11,33,5.10
2014,12,14,11,34,5.10
2014,12,14,11,35,5.10
2014,12,14,11,36,5.10
2014,12,14,11,37,5.10
2014,12,14,11,38,5.10
2014,12,14,11,39,5.10
2014,12,14,11,40,5.10
2014,12,14,11,41,5.10
2014,12,14,11,42,5.20
2014,12,14,11,43,5.10
2014,12,14,11,44,5.20
2014,12,14,11,45,5.20
2014,12,14,11,46,5.20
2014,12,14,11,47,5.20
2014,12,14,11,48,5.20
2014,12,14,11,49,5.20
2014,12,14,11,50,5.20
2014,12,14,11,51,5.20
2014,12,14,11,52,5.20
2014,12,14,11,53,5.20
2014,12,14,11,54,5.20
2014,12,14,11,55,5.20
2014,12,14,11,56,5.20
2014,12,14,11,57,5.20
2014,12,14,11,58,5.20
2014,12,14,11,59,5.20
2014,12,14,12,00,5.20
2014,12,14,12,01,5.30
2014,12,14,12,02,5.30
2014,12,14,12,03,5.30
2014,12,14,12,04,5.30
2014,12,14,12,05,5.30
2014,12,14,12,06,5.30
2014,12,14,12,07,5.30
2014,12,14,12,08,5.30
2014,12,14,12,09,5.30
2014,12,14,12,10,5.30
2014,12,14,12,11,5.40
2014,12,14,12,12,5.40
2014,12,14,12,13,5.40
2014,12,14,12,14,5.40
2014,12,14,12,15,5.40
2014,12,14,12,16,5.40
2014,12,14,12,17,5.50
2014,12,14,12,18,5.50
2014,12,14,12,19,5.50
2014,12,14,12,20,5.50
2014,12,14,12,21,5.50
2014,12,14,12,22,5.50
2014,12,14,12,23,5.60
2014,12,14,12,24,5.60
2014,12,14,12,25,5.60
2014,12,14,12,26,5.60
2014,12,14,12,27,5.60
2014,12,14,12,28,5.70
2014,12,14,12,29,5.70
2014,12,14,12,30,5.70
2014,12,14,12,31,5.70
2014,12,14,12,32,5.70
2014,12,14,12,33,5.80
2014,12,14,12,34,5.80
2014,12,14,12,35,5.80
2014,12,14,12,36,5.80
2014,12,14,12,37,5.80
2014,12,14,12,38,5.90
2014,12,14,12,39,5.90
2014,12,14,12,40,5.90
2014,12,14,12,41,5.90
2014,12,14,12,42,5.90
2014,12,14,12,43,5.90
2014,12,14,12,44,5.90
2014,12,14,12,45,6.00
2014,12,14,12,46,6.00
2014,12,14,12,47,6.00
2014,12,14,12,48,6.00
2014,12,14,12,49,6.10
2014,12,14,12,50,6.10
2014,12,14,12,51,6.10
2014,12,14,12,52,6.10
2014,12,14,12,53,6.10
2014,12,14,12,54,6.10
2014,12,14,12,55,6.10
2014,12,14,12,56,6.10
2014,12,14,12,57,6.10
2014,12,14,12,58,6.10
2014,12,14,12,59,6.10
2014,12,14,13,00,6.10
2014,12,14,13,01,6.10
2014,12,14,13,02,6.10
2014,12,14,13,03,6.10
2014,12,14,13,04,6.10
2014,12,14,13,05,6.10
2014,12,14,13,06,6.10
2014,12,14,13,07,6.10
2014,12,14,13,08,6.20
2014,12,14,13,09,6.20
2014,12,14,13,10,6.20
2014,12,14,13,11,6.20
2014,12,14,13,12,6.20
2014,12,14,13,13,6.20
2014,12,14,13,14,6.20
2014,12,14,13,15,6.20
2014,12,14,13,16,6.20
2014,12,14,13,17,6.20
2014,12,14,13,18,6.20
2014,12,14,13,19,6.20
2014,12,14,13,20,6.10
2014,12,14,13,21,6.10
2014,12,14,13,22,6.10
2014,12,14,13,23,6.10
2014,12,14,13,24,6.10
2014,12,14,13,25,6.10
2014,12,14,13,26,6.10
2014,12,14,13,27,6.10
2014,12,14,13,28,6.10
2014,12,14,13,29,6.10
2014,12,14,13,30,6.10
2014,12,14,13,31,6.10
2014,12,14,13,32,6.10
2014,12,14,13,33,6.10
2014,12,14,13,34,6.00
2014,12,14,13,35,6.10
2014,12,14,13,36,6.00
2014,12,14,13,37,6.00
2014,12,14,13,38,6.00
2014,12,14,13,39,6.00
2014,12,14,13,40,6.00
2014,12,14,13,41,6.00
2014,12,14,13,42,6.00
2014,12,14,13,43,6.00
2014,12,14,13,44,6.00
2014,12,14,13,45,6.00
2014,12,14,13,46,6.00
2014,12,14,13,47,6.00
2014,12,14,13,48,6.00
2014,12,14,13,49,6.00
2014,12,14,13,50,6.00
2014,12,14,13,51,6.00
2014,12,14,13,52,6.00
2014,12,14,13,53,6.00
2014,12,14,13,54,6.00
2014,12,14,13,55,6.00
2014,12,14,13,56,6.00
2014,12,14,13,57,6.00
2014,12,14,13,58,6.00
2014,12,14,13,59,6.00
2014,12,14,14,00,6.00
2014,12,14,14,01,6.00
2014,12,14,14,02,6.00
2014,12,14,14,03,6.00
2014,12,14,14,04,6.00
2014,12,14,14,05,6.00
2014,12,14,14,06,6.00
2014,12,14,14,07,6.00
2014,12,14,14,08,6.00
2014,12,14,14,09,6.00
2014,12,14,14,10,6.00
2014,12,14,14,11,6.00
2014,12,14,14,12,6.00
2014,12,14,14,13,6.00
2014,12,14,14,14,6.00
2014,12,14,14,15,6.00
2014,12,14,14,16,6.00
2014,12,14,14,17,6.00
2014,12,14,14,18,6.00
2014,12,14,14,19,6.00
2014,12,14,14,20,6.00
2014,12,14,14,21,6.00
2014,12,14,14,22,6.00
2014,12,14,14,23,6.00
2014,12,14,14,24,5.90
2014,12,14,14,25,5.90
2014,12,14,14,26,5.90
2014,12,14,14,27,5.90
2014,12,14,14,28,5.90
2014,12,14,14,29,5.90
2014,12,14,14,30,5.90
2014,12,14,14,31,5.90
2014,12,14,14,32,5.90
2014,12,14,14,33,5.90
2014,12,14,14,34,5.90
2014,12,14,14,35,5.90
2014,12,14,14,36,5.90
2014,12,14,14,37,5.90
2014,12,14,14,38,5.90
2014,12,14,14,39,5.90
2014,12,14,14,40,5.90
2014,12,14,14,41,5.90
2014,12,14,14,42,5.90
2014,12,14,14,43,5.90
2014,12,14,14,44,5.90
2014,12,14,14,45,5.90
2014,12,14,14,46,5.90
2014,12,14,14,47,5.90
2014,12,14,14,48,5.90
2014,12,14,14,49,5.90
2014,12,14,14,50,5.90
2014,12,14,14,51,5.90
2014,12,14,14,52,5.90
2014,12,14,14,53,5.90
2014,12,14,14,54,5.90
2014,12,14,14,55,5.90
2014,12,14,14,56,5.90
2014,12,14,14,57,5.90
2014,12,14,14,58,5.90
2014,12,14,14,59,5.90
2014,12,14,15,00,5.90
2014,12,14,15,01,5.90
2014,12,14,15,02,5.80
2014,12,14,15,03,5.80
2014,12,14,15,04,5.80
2014,12,14,15,05,5.80
2014,12,14,15,06,5.80
2014,12,14,15,07,5.80
2014,12,14,15,08,5.80
2014,12,14,15,09,5.80
2014,12,14,15,10,5.80
2014,12,14,15,11,5.80
2014,12,14,15,12,5.80
2014,12,14,15,13,5.80
2014,12,14,15,14,5.80
2014,12,14,15,15,5.70
2014,12,14,15,16,5.70
2014,12,14,15,17,5.70
2014,12,14,15,18,5.70
2014,12,14,15,19,5.70
2014,12,14,15,20,5.70
2014,12,14,15,21,5.70
2014,12,14,15,22,5.70
2014,12,14,15,23,5.70
2014,12,14,15,24,5.70
2014,12,14,15,25,5.70
2014,12,14,15,26,5.70
2014,12,14,15,27,5.60
2014,12,14,15,28,5.60
2014,12,14,15,29,5.60
2014,12,14,15,30,5.60
2014,12,14,15,31,5.60
2014,12,14,15,32,5.60
2014,12,14,15,33,5.60
2014,12,14,15,34,5.50
2014,12,14,15,35,5.50
2014,12,14,15,36,5.50
2014,12,14,15,37,5.40
2014,12,14,15,38,5.40
2014,12,14,15,39,5.40
2014,12,14,15,40,5.40
2014,12,14,15,41,5.40
2014,12,14,15,42,5.30
2014,12,14,15,43,5.30
2014,12,14,15,44,5.30
2014,12,14,15,45,5.30
2014,12,14,15,46,5.30
2014,12,14,15,47,5.30
2014,12,14,15,48,5.20
2014,12,14,15,49,5.20
2014,12,14,15,50,5.20
2014,12,14,15,51,5.20
2014,12,14,15,52,5.20
2014,12,14,15,53,5.10
2014,12,14,15,54,5.10
2014,12,14,15,55,5.10
2014,12,14,15,56,5.10
2014,12,14,15,57,5.00
2014,12,14,15,58,5.00
2014,12,14,15,59,5.00
2014,12,14,16,00,5.00
2014,12,14,16,01,4.90
2014,12,14,16,02,4.90
2014,12,14,16,03,4.90
2014,12,14,16,04,4.80
2014,12,14,16,05,4.80
2014,12,14,16,06,4.80
2014,12,14,16,07,4.80
2014,12,14,16,08,4.70
2014,12,14,16,09,4.70
2014,12,14,16,10,4.70
2014,12,14,16,11,4.70
2014,12,14,16,12,4.70
2014,12,14,16,13,4.60
2014,12,14,16,14,4.60
2014,12,14,16,15,4.60
2014,12,14,16,16,4.50
2014,12,14,16,17,4.50
2014,12,14,16,18,4.50
2014,12,14,16,19,4.40
2014,12,14,16,20,4.40
2014,12,14,16,21,4.40
2014,12,14,16,22,4.40
2014,12,14,16,23,4.30
2014,12,14,16,24,4.30
2014,12,14,16,25,4.30
2014,12,14,16,26,4.30
2014,12,14,16,27,4.20
2014,12,14,16,28,4.20
2014,12,14,16,29,4.20
2014,12,14,16,30,4.20
2014,12,14,16,31,4.10
2014,12,14,16,32,4.10
2014,12,14,16,33,4.10
2014,12,14,16,34,4.00
2014,12,14,16,35,4.00
2014,12,14,16,36,3.90
2014,12,14,16,37,3.90
2014,12,14,16,38,3.90
2014,12,14,16,39,3.80
2014,12,14,16,40,3.80
2014,12,14,16,41,3.80
2014,12,14,16,42,3.70
2014,12,14,16,43,3.70
2014,12,14,16,44,3.70
2014,12,14,16,45,3.60
2014,12,14,16,46,3.60
2014,12,14,16,47,3.60
2014,12,14,16,48,3.60
2014,12,14,16,49,3.60
2014,12,14,16,50,3.50
2014,12,14,16,51,3.50
2014,12,14,16,52,3.50
2014,12,14,16,53,3.40
2014,12,14,16,54,3.40
2014,12,14,16,55,3.40
2014,12,14,16,56,3.30
2014,12,14,16,57,3.30
2014,12,14,16,58,3.30
2014,12,14,16,59,3.30
2014,12,14,17,00,3.30
2014,12,14,17,01,3.20
2014,12,14,17,02,3.20
2014,12,14,17,03,3.20
2014,12,14,17,04,3.10
2014,12,14,17,05,3.10
2014,12,14,17,06,3.10
2014,12,14,17,07,3.00
2014,12,14,17,08,3.00
2014,12,14,17,09,3.00
2014,12,14,17,10,2.90
2014,12,14,17,11,2.90
2014,12,14,17,12,2.90
2014,12,14,17,13,2.90
2014,12,14,17,14,2.80
2014,12,14,17,15,2.80
2014,12,14,17,16,2.80
2014,12,14,17,17,2.80
2014,12,14,17,18,2.80
2014,12,14,17,19,2.80
2014,12,14,17,20,2.70
2014,12,14,17,21,2.70
2014,12,14,17,22,2.70
2014,12,14,17,23,2.70
2014,12,14,17,24,2.70
2014,12,14,17,25,2.60
2014,12,14,17,26,2.60
2014,12,14,17,27,2.60
2014,12,14,17,28,2.60
2014,12,14,17,29,2.60
2014,12,14,17,30,2.50
2014,12,14,17,31,2.50
2014,12,14,17,32,2.50
2014,12,14,17,33,2.40
2014,12,14,17,34,2.40
2014,12,14,17,35,2.40
2014,12,14,17,36,2.40
2014,12,14,17,37,2.40
2014,12,14,17,38,2.40
2014,12,14,17,39,2.40
2014,12,14,17,40,2.40
2014,12,14,17,41,2.30
2014,12,14,17,42,2.30
2014,12,14,17,43,2.30
2014,12,14,17,44,2.30
2014,12,14,17,45,2.30
2014,12,14,17,46,2.30
2014,12,14,17,47,2.30
2014,12,14,17,48,2.30
2014,12,14,17,49,2.30
2014,12,14,17,50,2.30
2014,12,14,17,51,2.30
2014,12,14,17,52,2.30
2014,12,14,17,53,2.30
2014,12,14,17,54,2.30
2014,12,14,17,55,2.30
2014,12,14,17,56,2.20
2014,12,14,17,57,2.20
2014,12,14,17,58,2.20
2014,12,14,17,59,2.20
2014,12,14,18,00,2.20
2014,12,14,18,01,2.20
2014,12,14,18,02,2.10
2014,12,14,18,03,2.10
2014,12,14,18,04,2.10
2014,12,14,18,05,2.10
2014,12,14,18,06,2.00